DAL377 PANC-KMSP

Flight info

Callsign DAL377
Flight time N/A
Altitude 31000
Route NOEND JOH YAK YYE/N0457F330 57N120W ELTIP 53N110W 50N100W GGULL BAINY4
Aircraft A21N/M-SDE3FGHIRWY/LB1

Departure

Time 2026-05-06 06:10
Airport Ted Stevens Anchorage International Airport (PANC)

Arrival

Time N/A
Airport Minneapolis–Saint Paul International Airport / Wold–Chamberlain Field (KMSP)
Time Latitude Longitude Altitude Speed Heading
2026-05-06 05:48 61.17268 -149.98553 160 ft 0 kts 108°
2026-05-06 05:57 61.17269 -149.98555 160 ft 1 kts 108°
2026-05-06 05:57 61.17274 -149.98585 160 ft 2 kts 108°
2026-05-06 05:57 61.17278 -149.98616 160 ft 2 kts 108°
2026-05-06 05:57 61.17283 -149.98645 160 ft 2 kts 108°
2026-05-06 05:58 61.17290 -149.98677 160 ft 2 kts 137°
2026-05-06 05:58 61.17305 -149.98694 160 ft 2 kts 169°
2026-05-06 05:58 61.17322 -149.98691 160 ft 2 kts 204°
2026-05-06 05:58 61.17329 -149.98683 160 ft 1 kts 219°
2026-05-06 05:59 61.17332 -149.98679 160 ft 0 kts 215°
2026-05-06 06:02 61.17330 -149.98682 160 ft 0 kts 215°
2026-05-06 06:03 61.17323 -149.98692 160 ft 1 kts 214°
2026-05-06 06:03 61.17311 -149.98708 160 ft 2 kts 213°
2026-05-06 06:03 61.17296 -149.98727 160 ft 2 kts 212°
2026-05-06 06:03 61.17265 -149.98767 160 ft 7 kts 212°
2026-05-06 06:04 61.17215 -149.98766 160 ft 8 kts 161°
2026-05-06 06:04 61.17158 -149.98721 160 ft 8 kts 153°
2026-05-06 06:04 61.17121 -149.98622 160 ft 9 kts 107°
2026-05-06 06:04 61.17117 -149.98491 160 ft 9 kts 88°
2026-05-06 06:05 61.17118 -149.98349 160 ft 9 kts 89°
2026-05-06 06:05 61.17119 -149.98207 160 ft 9 kts 90°
2026-05-06 06:05 61.17118 -149.98068 160 ft 9 kts 91°
2026-05-06 06:05 61.17116 -149.97919 160 ft 10 kts 90°
2026-05-06 06:06 61.17116 -149.97765 160 ft 11 kts 90°
2026-05-06 06:06 61.17117 -149.97595 160 ft 11 kts 88°
2026-05-06 06:06 61.17120 -149.97427 160 ft 11 kts 84°
2026-05-06 06:06 61.17126 -149.97261 160 ft 12 kts 88°
2026-05-06 06:07 61.17128 -149.97095 160 ft 12 kts 89°
2026-05-06 06:07 61.17128 -149.96935 160 ft 12 kts 91°
2026-05-06 06:07 61.17110 -149.96837 160 ft 8 kts 134°
2026-05-06 06:07 61.17063 -149.96803 160 ft 8 kts 175°
2026-05-06 06:08 61.17003 -149.96803 160 ft 10 kts 180°
2026-05-06 06:08 61.16926 -149.96834 160 ft 11 kts 217°
2026-05-06 06:08 61.16888 -149.96980 160 ft 11 kts 248°
2026-05-06 06:08 61.16856 -149.97141 160 ft 11 kts 247°
2026-05-06 06:09 61.16822 -149.97299 160 ft 11 kts 244°
2026-05-06 06:09 61.16791 -149.97466 160 ft 15 kts 262°
2026-05-06 06:09 61.16783 -149.98093 160 ft 76 kts 269°
2026-05-06 06:09 61.16784 -149.99820 161 ft 142 kts 269°
2026-05-06 06:10 61.16787 -150.02383 174 ft 192 kts 269°
2026-05-06 06:10 61.16811 -150.05371 675 ft 202 kts 267°
2026-05-06 06:10 61.16850 -150.08449 1436 ft 204 kts 269°
2026-05-06 06:10 61.16914 -150.11587 2172 ft 204 kts 270°
2026-05-06 06:11 61.16950 -150.14694 2606 ft 209 kts 269°
2026-05-06 06:11 61.17010 -150.17726 2874 ft 221 kts 271°
2026-05-06 06:11 61.17444 -150.21213 3091 ft 242 kts 302°
2026-05-06 06:11 61.18693 -150.23708 3393 ft 257 kts 332°
2026-05-06 06:12 61.20499 -150.24644 3790 ft 268 kts
2026-05-06 06:12 61.22422 -150.24083 4409 ft 269 kts 12°
2026-05-06 06:12 61.24468 -150.23135 5073 ft 272 kts 14°
2026-05-06 06:12 61.26488 -150.22156 5712 ft 275 kts 14°
2026-05-06 06:13 61.28474 -150.21202 6328 ft 278 kts 14°
2026-05-06 06:13 61.30490 -150.20248 6938 ft 280 kts 14°
2026-05-06 06:13 61.32526 -150.19290 7583 ft 281 kts 14°
2026-05-06 06:13 61.34607 -150.18306 8217 ft 283 kts 14°
2026-05-06 06:14 61.36629 -150.17340 8819 ft 284 kts 14°
2026-05-06 06:14 61.38662 -150.16345 9424 ft 285 kts 14°
2026-05-06 06:14 61.40661 -150.15330 10011 ft 286 kts 14°
2026-05-06 06:14 61.42728 -150.14119 10413 ft 294 kts 23°
2026-05-06 06:15 61.44433 -150.11319 10625 ft 307 kts 56°
2026-05-06 06:15 61.45200 -150.06738 10896 ft 318 kts 88°
2026-05-06 06:15 61.44660 -150.01726 11096 ft 329 kts 118°
2026-05-06 06:15 61.43356 -149.97253 11363 ft 340 kts 123°
2026-05-06 06:16 61.41982 -149.92737 11591 ft 351 kts 122°
2026-05-06 06:16 61.40538 -149.87769 11834 ft 363 kts 121°
2026-05-06 06:16 61.39144 -149.82768 12181 ft 370 kts 120°
2026-05-06 06:16 61.37760 -149.77672 12699 ft 371 kts 119°
2026-05-06 06:17 61.36550 -149.73157 13108 ft 374 kts 119°
2026-05-06 06:17 61.35139 -149.67864 13554 ft 378 kts 119°
2026-05-06 06:17 61.33762 -149.62686 14002 ft 380 kts 119°
2026-05-06 06:17 61.32390 -149.57520 14425 ft 383 kts 119°
2026-05-06 06:18 61.30983 -149.52232 14846 ft 386 kts 119°
2026-05-06 06:18 61.29572 -149.46931 15257 ft 388 kts 119°
2026-05-06 06:18 61.28131 -149.41531 15672 ft 391 kts 119°
2026-05-06 06:18 61.26706 -149.36202 16079 ft 393 kts 119°
2026-05-06 06:19 61.26228 -149.34416 16209 ft 394 kts 120°
2026-05-06 06:19 61.25817 -149.32883 16320 ft 395 kts 120°
2026-05-06 06:19 61.25303 -149.30963 16459 ft 395 kts 120°
2026-05-06 06:19 61.23963 -149.25975 16872 ft 397 kts 120°
2026-05-06 06:20 61.22726 -149.21382 17217 ft 400 kts 120°
2026-05-06 06:20 61.21371 -149.16357 17536 ft 402 kts 120°
2026-05-06 06:20 61.19992 -149.11261 17847 ft 405 kts 120°
2026-05-06 06:20 61.18884 -149.07169 18111 ft 406 kts 120°
2026-05-06 06:21 61.17520 -149.02141 18421 ft 408 kts 120°
2026-05-06 06:21 61.16112 -148.96967 18726 ft 410 kts 120°
2026-05-06 06:21 61.14725 -148.91876 19011 ft 412 kts 120°
2026-05-06 06:21 61.13308 -148.86691 19310 ft 414 kts 120°
2026-05-06 06:22 61.11896 -148.81535 19598 ft 416 kts 120°
2026-05-06 06:22 61.10456 -148.76285 19869 ft 418 kts 120°
2026-05-06 06:22 61.09041 -148.71143 20135 ft 420 kts 121°
2026-05-06 06:22 61.07572 -148.65814 20408 ft 422 kts 121°
2026-05-06 06:23 61.06137 -148.60625 20679 ft 424 kts 121°
2026-05-06 06:23 61.04692 -148.55406 20939 ft 426 kts 121°
2026-05-06 06:23 61.03877 -148.52472 21085 ft 427 kts 121°
2026-05-06 06:23 61.02416 -148.47221 21345 ft 428 kts 121°
2026-05-06 06:24 61.00927 -148.41875 21598 ft 430 kts 121°
2026-05-06 06:24 60.99412 -148.36452 21859 ft 432 kts 121°
2026-05-06 06:24 60.97910 -148.31088 22111 ft 433 kts 122°
2026-05-06 06:24 60.96405 -148.25728 22352 ft 434 kts 122°
2026-05-06 06:25 60.94892 -148.20349 22603 ft 435 kts 122°
2026-05-06 06:25 60.93385 -148.15002 22829 ft 437 kts 122°
2026-05-06 06:25 60.90341 -148.04248 23244 ft 440 kts 122°
2026-05-06 06:26 60.88795 -147.98808 23442 ft 442 kts 122°
2026-05-06 06:26 60.87242 -147.93355 23638 ft 444 kts 122°
2026-05-06 06:26 60.85673 -147.87860 23839 ft 445 kts 122°
2026-05-06 06:26 60.84121 -147.82433 24014 ft 447 kts 122°
2026-05-06 06:27 60.82536 -147.76904 24208 ft 448 kts 122°
2026-05-06 06:27 60.80965 -147.71434 24378 ft 450 kts 123°
2026-05-06 06:27 60.79372 -147.65903 24555 ft 452 kts 123°
2026-05-06 06:27 60.77793 -147.60446 24708 ft 453 kts 123°
2026-05-06 06:28 60.76184 -147.54890 24886 ft 454 kts 122°
2026-05-06 06:28 60.74571 -147.49332 25032 ft 456 kts 123°
2026-05-06 06:28 60.72964 -147.43800 25203 ft 457 kts 123°
2026-05-06 06:28 60.71344 -147.38242 25395 ft 458 kts 123°
2026-05-06 06:29 60.69705 -147.32638 25552 ft 459 kts 124°
2026-05-06 06:29 60.68056 -147.27014 25709 ft 460 kts 124°
2026-05-06 06:29 60.66424 -147.21455 25838 ft 461 kts 124°
2026-05-06 06:29 60.64766 -147.15830 26004 ft 462 kts 124°
2026-05-06 06:30 60.63111 -147.10226 26189 ft 462 kts 124°
2026-05-06 06:30 60.61463 -147.04657 26343 ft 462 kts 124°
2026-05-06 06:30 60.59826 -146.99136 26519 ft 462 kts 124°
2026-05-06 06:30 60.58159 -146.93529 26696 ft 462 kts 125°
2026-05-06 06:31 60.56482 -146.87898 26880 ft 462 kts 125°
2026-05-06 06:31 60.54836 -146.82387 27050 ft 462 kts 125°
2026-05-06 06:31 60.53171 -146.76831 27234 ft 462 kts 125°
2026-05-06 06:31 60.51498 -146.71260 27413 ft 462 kts 125°
2026-05-06 06:32 60.49865 -146.65700 27609 ft 463 kts 123°
2026-05-06 06:32 60.48475 -146.59850 27776 ft 467 kts 116°
2026-05-06 06:32 60.47388 -146.53612 27933 ft 471 kts 109°
2026-05-06 06:32 60.46592 -146.47160 28109 ft 473 kts 106°
2026-05-06 06:33 60.45874 -146.40677 28281 ft 473 kts 105°
2026-05-06 06:33 60.45173 -146.34222 28445 ft 474 kts 106°
2026-05-06 06:33 60.44461 -146.27702 28619 ft 474 kts 107°
2026-05-06 06:33 60.43747 -146.21245 28788 ft 474 kts 107°
2026-05-06 06:34 60.43016 -146.14732 28948 ft 474 kts 107°
2026-05-06 06:34 60.42287 -146.08285 29079 ft 475 kts 107°
2026-05-06 06:34 60.41553 -146.01849 29200 ft 476 kts 107°
2026-05-06 06:34 60.40801 -145.95285 29344 ft 477 kts 107°
2026-05-06 06:35 60.40054 -145.88818 29499 ft 477 kts 107°
2026-05-06 06:35 60.39305 -145.82352 29618 ft 478 kts 107°
2026-05-06 06:35 60.38550 -145.75870 29746 ft 479 kts 107°
2026-05-06 06:35 60.37810 -145.69548 29885 ft 479 kts 107°
2026-05-06 06:36 60.37043 -145.63031 30011 ft 480 kts 107°
2026-05-06 06:36 60.36263 -145.56426 30141 ft 481 kts 107°
2026-05-06 06:36 60.35491 -145.49925 30259 ft 482 kts 107°
2026-05-06 06:36 60.34703 -145.43315 30388 ft 482 kts 107°
2026-05-06 06:37 60.33926 -145.36833 30490 ft 484 kts 107°
2026-05-06 06:37 60.32350 -145.23756 30706 ft 485 kts 108°
2026-05-06 06:37 60.31556 -145.17215 30831 ft 486 kts 108°
2026-05-06 06:38 60.30744 -145.10555 30922 ft 486 kts 108°
2026-05-06 06:38 60.29135 -144.97456 30931 ft 487 kts 108°
2026-05-06 06:39 60.27490 -144.84180 30935 ft 487 kts 108°
2026-05-06 06:39 60.25876 -144.71265 30940 ft 487 kts 108°